Flag for India Weather past 2 weeks in Kolkata, West Bengal, India

Now
88 °F

Broken clouds.


Feels Like: 102 °F
Forecast: 79 / 93 °F
Wind: 6 mph from Northwest

Location: Calcutta / Dum Dum

Current Time: Sep 23, 2014 at 10:52:19 AM

Latest Report: Sep 23, 2014 at 10:20 AM


Visibility: 2 mi

Pressure: 29.71 "Hg

Humidity: 75%

Dew point: 79 °F

Location of KolkataLocation

Historic Weather in Kolkata — Graph

°F

Kolkata temperature yesterday

Maximum temperature yesterday: 90 °F (at 11:50 AM)
Minimum temperature yesterday: 79 °F (at 2:20 AM)
Average temperature yesterday: 83 °F

Past Weeks' High & Low Weather Summary

 TemperatureHumidityPressure
High95 °F (Sep 15, 12:20 PM)100% (Sep 21, 1:50 AM)29.77 "Hg (Sep 21, 1:50 AM)
Low79 °F (Sep 20, 1:50 PM)53% (Sep 17, 2:20 PM)29.47 "Hg (Sep 16, 4:50 PM)
Average85 °F82%29.62 "Hg
* Reported Sep 8 9:50 AM — Sep 23 9:50 AM, Kolkata, Weather by CustomWeather, © 2014

Note: Actual official high and low records may vary slightly from our data, if they occured in-between our weather recording intervals... More about our weather records

Advertising

Kolkata weather history for previous 24 hours

 ConditionsComfort  
Time TempWeatherWind HumidityBarometerVisibility
9:50 AM
Sep 23
86 °FBroken clouds.5 mph79%29.68 "Hg2 mi
9:20 AM86 °FBroken clouds.5 mph79%29.68 "Hg2 mi
8:20 AM84 °FBroken clouds.7 mph84%29.68 "Hg1 mi
7:50 AM82 °FBroken clouds.6 mph89%29.68 "Hg1 mi
7:20 AM82 °FFog.3 mph89%29.68 "Hg1 mi
6:50 AM81 °FFog.No wind94%29.65 "Hg1 mi
6:20 AM81 °FFog.No wind94%29.62 "Hg1 mi
5:50 AM81 °FFog.No wind89%29.65 "Hg1 mi
5:20 AM81 °FPassing clouds.No wind89%29.62 "Hg1 mi
4:50 AM81 °FHaze.No wind89%29.62 "Hg1 mi
4:20 AM81 °FPassing clouds.No wind89%29.59 "Hg1 mi
3:50 AM81 °FPassing clouds.3 mph89%29.59 "Hg1 mi
3:20 AM81 °FPassing clouds.No wind89%29.62 "Hg1 mi
2:50 AM81 °FPartly cloudy.No wind89%29.59 "Hg1 mi
2:20 AM81 °FPartly cloudy.3 mph94%29.59 "Hg1 mi
1:50 AM81 °FLight rain. Partly cloudy.5 mph94%29.62 "Hg1 mi
12:50 AM81 °FThunderstorms. Partly cloudy.5 mph94%29.65 "Hg1 mi
11:50 PM
Sep 22
81 °FThunderstorms. Mostly cloudy.5 mph94%29.65 "Hg1 mi
11:20 PM82 °FStrong thunderstorms. Mostly cloudy.6 mph89%29.65 "Hg1 mi
10:50 PM82 °FThunderstorms. Partly cloudy.6 mph89%29.65 "Hg1 mi
10:20 PM82 °FThunderstorms. Partly cloudy.3 mph89%29.68 "Hg1 mi
9:50 PM82 °FThunderstorms. Partly cloudy.3 mph89%29.68 "Hg1 mi
9:20 PM82 °FPartly cloudy.No wind89%29.68 "Hg1 mi
8:50 PM82 °FPartly cloudy.3 mph89%29.68 "Hg2 mi
8:20 PM82 °FPartly cloudy.3 mph89%29.65 "Hg2 mi
7:50 PM82 °FPartly cloudy.No wind89%29.62 "Hg2 mi
7:20 PM82 °FPartly cloudy.No wind89%29.62 "Hg2 mi
6:50 PM82 °FThunderstorms. Partly cloudy.3 mph89%29.62 "Hg2 mi
6:20 PM84 °FThunderstorms. Partly cloudy.5 mph84%29.62 "Hg2 mi
5:50 PM84 °FThunderstorms. Broken clouds.No wind84%29.62 "Hg2 mi
5:20 PM84 °FThunderstorms. Broken clouds.3 mph84%29.62 "Hg2 mi
4:50 PM86 °FBroken clouds.3 mph84%29.62 "Hg2 mi
4:20 PM86 °FBroken clouds.3 mph84%29.59 "Hg2 mi
3:20 PM86 °FBroken clouds.3 mph84%29.56 "Hg2 mi
2:50 PM86 °FBroken clouds.5 mph84%29.59 "Hg1 mi
2:20 PM88 °FBroken clouds.5 mph79%29.59 "Hg1 mi
1:50 PM86 °FThunderstorms. More clouds than sun.6 mph84%29.59 "Hg2 mi
1:20 PM84 °FThunderstorms. More clouds than sun.6 mph89%29.62 "Hg1 mi
12:20 PM90 °FBroken clouds.8 mph75%29.65 "Hg2 mi
11:50 AM90 °FBroken clouds.8 mph75%29.65 "Hg2 mi
11:20 AM88 °FBroken clouds.9 mph79%29.65 "Hg2 mi
10:50 AM88 °FBroken clouds.9 mph79%29.68 "Hg2 mi
10:20 AM86 °FBroken clouds.10 mph84%29.68 "Hg2 mi
Weather by CustomWeather, © 2014

See weather overviewHow to use our weather pages